Location: Newark
(43.4306°N, 0.3089°E)
Time: 06:22:36
(UTC+00:00)

Vanguard 3 - Pass Details

Date: 27 August 2019
Orbit: 508 x 3263 km, 33.4° (Epoch: 14 September)

Event Time Altitude Azimuth Distance (km) Brightness Sun altitude
Rises 12:23:50 0° 197° (SSW) 6,791 12.4 56.2°
Reaches altitude 10° 12:31:50 10° 178° (S) 5,243 12.0 55.9°
Maximum altitude 12:38:19 14° 151° (SSE) 4,317 11.4 55.6°
Drops below altitude 10° 12:43:37 10° 123° (ESE) 4,130 11.0 55.3°
Sets 12:48:24 0° 101° (E) 4,570 10.9 55.0°
